GW4407 Weather Reports


time (UTC)temp
C
wind
direction
speed
KPH
gust
KPH
rain 1hr
cm
rain 24hr
cm
rain mn
cm
humidity
%
barometer
mb
20260507062703 7 335 3.2 6.4 0.00 0.03 0.00 83 1024.7
20260507061803 7 318 4.8 6.4 0.00 0.03 0.00 83 1024.7
20260507060903 7 333 3.2 6.4 0.00 0.03 0.00 83 1024.7
20260507060003 7 327 3.2 6.4 0.00 0.05 0.00 83 1024.6
20260507055403 7 331 4.8 6.4 0.00 0.05 0.00 84 1024.7
20260507054503 7 338 4.8 9.7 0.00 0.05 0.00 84 1024.5
20260507053603 7 355 3.2 6.4 0.00 0.05 0.00 84 1024.6
20260507052919 7 355 3.2 4.8 0.00 0.05 0.00 84 1024.3
20260507051803 7 352 3.2 6.4 0.00 0.05 0.00 84 1024.1
20260507050903 7 347 3.2 6.4 0.00 0.05 0.00 84 1024.0
20260507045403 7 2 4.8 11.3 0.00 0.05 0.00 84 1024.1
20260507044503 7 343 3.2 9.7 0.00 0.05 0.00 85 1024.1
20260507043603 6 340 4.8 6.4 0.00 0.05 0.00 86 1023.9
20260507042703 6 340 3.2 4.8 0.00 0.05 0.00 86 1023.8
20260507041803 6 339 3.2 6.4 0.00 0.05 0.00 86 1023.7
20260507040903 6 344 4.8 6.4 0.00 0.08 0.00 86 1023.4
20260507040217 6 337 4.8 6.4 0.00 0.08 0.00 86 1023.5
20260507035403 6 337 3.2 6.4 0.00 0.10 0.00 86 1023.5
20260507034503 6 345 3.2 9.7 0.00 0.13 0.00 86 1023.4
20260507033603 6 339 3.2 4.8 0.00 0.18 0.00 86 1023.4
20260507032703 6 329 3.2 6.4 0.00 0.20 0.00 86 1023.6
20260507032018 7 328 3.2 6.4 0.00 0.20 0.00 85 1023.4
20260507030903 7 357 3.2 4.8 0.00 0.23 0.00 85 1023.3
20260507030003 7 10 3.2 6.4 0.00 0.23 0.00 85 1023.2
20260507025403 7 13 3.2 6.4 0.00 0.25 0.00 85 1023.3
20260507024503 7 8 4.8 6.4 0.00 0.25 0.00 85 1023.3
20260507023603 7 3 3.2 6.4 0.00 0.25 0.00 85 1023.3
20260507022918 7 358 3.2 6.4 0.00 0.28 0.00 84 1023.3
20260507021803 7 8 3.2 9.7 0.00 0.30 0.00 84 1023.1
20260507020903 7 2 3.2 4.8 0.00 0.30 0.00 84 1023.1
20260507020004 7 19 3.2 6.4 0.00 0.33 0.00 84 1023.0
20260507015403 7 11 3.2 6.4 0.00 0.33 0.00 84 1022.7
20260507014503 7 14 4.8 9.7 0.00 0.36 0.00 84 1022.8
20260507013603 7 360 4.8 9.7 0.00 0.36 0.00 83 1022.8
20260507012703 7 349 6.4 12.9 0.00 0.36 0.00 83 1022.9
20260507011803 7 6 6.4 12.9 0.00 0.38 0.00 83 1022.7
20260507010903 8 10 4.8 11.3 0.00 0.38 0.00 83 1022.7
20260507010003 8 23 3.2 6.4 0.00 0.38 0.00 83 1022.7
20260507005403 8 9 3.2 6.4 0.00 0.38 0.00 83 1022.5
20260507004503 8 8 4.8 9.7 0.00 0.41 0.00 82 1022.5
20260507003603 8 5 4.8 6.4 0.00 0.41 0.00 82 1022.4
20260507002703 8 357 4.8 11.3 0.00 0.41 0.00 81 1022.5
20260507001803 8 358 6.4 11.3 0.00 0.41 0.00 81 1022.7
20260507000903 8 2 6.4 12.9 0.00 0.43 0.00 80 1022.3
20260507000003 8 9 4.8 9.7 0.00 0.43 0.00 80 1022.3
20260506235403 9 350 6.4 11.3 0.00 0.43 0.00 80 1022.5
20260506234718 9 342 6.4 11.3 0.00 0.43 0.00 80 1022.4
20260506233603 9 11 6.4 11.3 0.00 0.43 0.00 80 1022.3
20260506232703 9 17 6.4 12.9 0.00 0.43 0.00 79 1022.4
20260506231803 9 32 6.4 12.9 0.00 0.43 0.00 79 1022.2
20260506230903 9 355 6.4 14.5 0.00 0.43 0.00 79 1022.1
20260506230003 10 338 3.2 9.7 0.00 0.43 0.00 80 1022.3
20260506225403 10 336 3.2 4.8 0.00 0.43 0.00 80 1022.2
20260506224503 10 340 3.2 6.4 0.00 0.43 0.00 79 1022.2
20260506223603 10 354 1.6 6.4 0.00 0.43 0.00 78 1022.1
20260506222917 10 359 1.6 3.2 0.00 0.43 0.00 79 1021.9
20260506221803 10 21 1.6 4.8 0.00 0.43 0.00 79 1021.9
20260506221119 10 26 1.6 4.8 0.00 0.43 0.00 79 1022.0
20260506220004 10 31 3.2 4.8 0.00 0.43 0.00 78 1022.0
20260506215403 10 38 3.2 9.7 0.00 0.43 0.43 78 1022.0
20260506214503 10 6 6.4 11.3 0.00 0.43 0.43 77 1022.0
20260506213603 10 341 4.8 6.4 0.00 0.43 0.43 77 1021.8
20260506212703 10 338 3.2 6.4 0.00 0.43 0.43 77 1021.8
20260506211803 10 350 3.2 6.4 0.00 0.43 0.43 77 1021.6
20260506210903 10 350 3.2 4.8 0.00 0.43 0.43 77 1021.8
20260506210003 10 331 3.2 4.8 0.00 0.43 0.43 76 1021.6
20260506205403 10 343 1.6 3.2 0.00 0.43 0.43 76 1021.6
20260506204503 10 327 3.2 4.8 0.00 0.43 0.43 76 1021.7
20260506203603 10 319 3.2 4.8 0.00 0.43 0.43 76 1021.6
20260506202703 10 331 3.2 4.8 0.00 0.43 0.43 76 1021.6
20260506201803 10 352 1.6 4.8 0.00 0.43 0.43 76 1021.5
20260506200903 10 1 1.6 4.8 0.00 0.43 0.43 76 1021.5
20260506200004 10 4 3.2 4.8 0.00 0.43 0.43 76 1021.4
20260506195618 10 1 3.2 4.8 0.00 0.43 0.43 76 1021.4
20260506194503 10 10 1.6 4.8 0.00 0.43 0.43 76 1021.1
20260506193603 10 19 1.6 4.8 0.00 0.43 0.43 77 1021.1
20260506192703 10 20 1.6 3.2 0.00 0.43 0.43 76 1021.0
20260506192019 10 15 1.6 3.2 0.00 0.43 0.43 76 1021.1
20260506190903 10 34 3.2 6.4 0.00 0.43 0.43 75 1020.7
20260506190004 10 30 3.2 6.4 0.00 0.43 0.43 75 1020.8
20260506185403 10 26 4.8 11.3 0.00 0.43 0.43 74 1020.7
20260506184503 10 21 4.8 12.9 0.00 0.43 0.43 75 1020.6
20260506183603 10 20 4.8 12.9 0.00 0.43 0.43 75 1020.4
20260506182703 10 41 3.2 9.7 0.00 0.43 0.43 76 1020.5
20260506181803 10 47 3.2 11.3 0.00 0.43 0.43 76 1020.3
20260506180903 10 51 3.2 11.3 0.00 0.43 0.43 76 1020.3
20260506180004 10 51 3.2 6.4 0.00 0.43 0.43 76 1020.2
20260506175403 10 43 3.2 9.7 0.00 0.43 0.43 76 1020.1
20260506174503 10 31 4.8 9.7 0.00 0.43 0.43 75 1020.2
20260506173603 10 32 4.8 14.5 0.00 0.43 0.43 75 1019.9
20260506172703 10 33 6.4 14.5 0.00 0.43 0.43 74 1019.7
20260506171803 10 53 6.4 14.5 0.00 0.43 0.43 74 1019.4
20260506170903 10 35 8.0 24.1 0.00 0.43 0.43 73 1019.7
20260506170003 10 46 6.4 24.1 0.00 0.43 0.43 74 1019.3
20260506165403 10 46 4.8 12.9 0.00 0.43 0.43 76 1019.5
20260506164503 10 32 6.4 14.5 0.00 0.43 0.43 75 1019.5
20260506163819 10 32 6.4 14.5 0.00 0.43 0.43 75 1019.5
20260506162703 10 25 6.4 12.9 0.00 0.43 0.43 76 1019.5
20260506162018 10 29 8.0 16.1 0.00 0.43 0.43 76 1019.6
20260506160903 10 62 6.4 16.1 0.00 0.43 0.43 76 1019.5
20260506160216 10 61 8.0 16.1 0.00 0.43 0.43 77 1019.5
20260506155403 10 59 8.0 16.1 0.00 0.43 0.43 77 1019.6
20260506154503 10 33 8.0 17.7 0.00 0.43 0.43 78 1019.7
20260506153603 10 39 6.4 17.7 0.00 0.43 0.43 78 1019.4
20260506152703 10 39 4.8 12.9 0.00 0.43 0.43 79 1019.4
20260506151803 10 26 4.8 11.3 0.00 0.43 0.43 79 1019.4
20260506150903 10 27 4.8 14.5 0.00 0.43 0.43 80 1019.3
20260506150003 10 26 6.4 12.9 0.00 0.43 0.43 80 1019.3
20260506145616 10 24 6.4 14.5 0.00 0.43 0.43 80 1019.4
20260506144503 10 34 6.4 14.5 0.00 0.43 0.43 81 1019.4
20260506143603 10 39 6.4 12.9 0.00 0.43 0.43 81 1019.2
20260506142703 10 15 6.4 12.9 0.00 0.43 0.43 80 1019.3
20260506142017 10 15 4.8 12.9 0.00 0.43 0.43 80 1019.4
20260506140903 10 52 9.7 20.9 0.00 0.43 0.43 80 1019.2
20260506140003 10 36 6.4 12.9 0.00 0.43 0.43 80 1019.2
20260506135619 10 16 8.0 22.5 0.00 0.43 0.43 79 1019.2
20260506134503 10 56 8.0 16.1 0.00 0.43 0.43 79 1019.1
20260506133818 10 55 9.7 22.5 0.00 0.43 0.43 79 1019.2
20260506132703 10 36 8.0 17.7 0.00 0.43 0.43 79 1019.2
20260506131803 10 42 8.0 12.9 0.00 0.43 0.43 80 1019.0
20260506130903 10 20 9.7 20.9 0.00 0.43 0.43 79 1018.9
20260506130004 10 39 8.0 20.9 0.00 0.43 0.43 77 1018.8
20260506125403 10 18 8.0 16.1 0.00 0.43 0.43 76 1018.8
20260506124718 10 11 8.0 16.1 0.00 0.43 0.43 74 1018.7
20260506123603 10 30 8.0 14.5 0.00 0.43 0.43 73 1018.8
20260506122703 10 25 8.0 17.7 0.00 0.43 0.43 73 1018.6
20260506121803 10 13 9.7 17.7 0.00 0.43 0.43 72 1018.6
20260506121116 10 7 11.3 17.7 0.00 0.43 0.43 73 1018.7
20260506120003 10 15 8.0 14.5 0.00 0.43 0.43 74 1018.7
20260506115403 10 17 8.0 17.7 0.00 0.43 0.43 74 1018.5
20260506114503 10 30 4.8 12.9 0.00 0.43 0.43 79 1018.7
20260506113603 9 39 4.8 12.9 0.00 0.43 0.43 82 1018.7
20260506112703 9 37 6.4 12.9 0.00 0.43 0.43 83 1018.7
20260506111803 9 47 8.0 14.5 0.00 0.43 0.43 82 1018.7
20260506110903 9 19 9.7 20.9 0.00 0.43 0.43 79 1018.6
20260506110003 10 46 8.0 14.5 0.00 0.43 0.43 78 1018.5
20260506105403 10 29 6.4 14.5 0.00 0.43 0.43 77 1018.4
20260506104503 10 20 6.4 16.1 0.00 0.43 0.43 77 1018.4
20260506103603 10 74 6.4 12.9 0.00 0.43 0.43 78 1018.4
20260506102703 10 47 4.8 9.7 0.00 0.43 0.43 77 1018.4
20260506101803 10 9 4.8 9.7 0.00 0.43 0.43 78 1018.4
20260506100903 9 12 6.4 12.9 0.00 0.43 0.43 77 1018.3
20260506100004 9 30 8.0 16.1 0.00 0.43 0.43 78 1017.9
20260506095403 9 38 8.0 14.5 0.00 0.43 0.43 78 1018.2
20260506094503 9 21 8.0 20.9 0.03 0.43 0.43 78 1018.3
20260506093603 9 25 8.0 16.1 0.03 0.43 0.43 78 1018.2
20260506092703 9 26 9.7 24.1 0.03 0.43 0.43 79 1018.1
20260506091803 8 19 9.7 20.9 0.03 0.43 0.43 80 1017.9
20260506091118 8 19 9.7 20.9 0.03 0.43 0.43 82 1018.0
20260506090003 8 23 6.4 16.1 0.03 0.43 0.43 87 1018.0
20260506085403 8 29 8.0 16.1 0.03 0.43 0.43 88 1017.8
20260506084503 8 22 4.8 11.3 0.00 0.41 0.41 89 1017.9
20260506083603 8 24 6.4 14.5 0.00 0.41 0.41 89 1017.7
20260506082703 8 43 9.7 16.1 0.00 0.41 0.41 88 1017.8
20260506082019 8 46 9.7 17.7 0.00 0.41 0.41 88 1017.8
20260506080903 9 37 8.0 24.1 0.00 0.41 0.41 86 1017.5
20260506072703 9 11 6.4 11.3 0.00 0.41 0.41 89 1017.4
20260506071803 9 12 6.4 12.9 0.00 0.41 0.41 90 1017.5
20260506070903 8 14 6.4 11.3 0.00 0.41 0.41 91 1017.2